Location: *
(49.3000°N, 3.1044°E)
Time: 02:44:09
(UTC+00:00)

Daily predictions for brighter satellites

Satellite Brightness Start Highest point End
(mag) Time Altitude Azimuth Time Altitude Azimuth Time Altitude Azimuth
ATLAS 3B R/B 4.3 03:21:00 26° NNE 03:21:00 26° NNE 03:25:52 10° ENE
USA 215 3.9 03:33:30 10° ESE 03:38:26 52° E 03:38:26 52° E
CENTAUR R/B 3.9 03:43:35 37° N 03:45:10 41° NNE 03:53:04 10° E
Cosmos 2263 Rocket 4.2 03:50:46 19° NNE 03:52:12 21° NE 03:56:26 10° E
USA 238 DEB 4.0 04:08:11 62° N 04:09:02 67° NE 04:16:24 10° SE
USA 238 4.0 04:08:16 62° N 04:09:09 67° NE 04:16:30 10° SE
Cosmos 2369 4.4 04:16:57 46° SE 04:17:54 51° ESE 04:23:27 10° NE
SL-4 R/B 4.2 04:33:38 20° ESE 04:33:38 20° ESE 04:34:47 10° ESE
Nadezhda 1 Rocket 4.2 04:25:45 10° S 04:31:43 65° E 04:37:44 10° NNE
Cosmos 1980 Rocket 3.4 04:33:30 10° S 04:38:47 41° ESE 04:44:05 10° NE
BREEZE-M DEB (TANK) 4.4 04:39:47 51° E 04:39:47 51° E 04:44:46 10° E
Cosmos 1697 Rocket 2.7 04:45:12 53° SSW 04:46:34 80° ESE 04:52:12 10° NNE
COSMOS 2455 4.0 04:41:41 10° S 04:47:16 41° ESE 04:52:52 10° NE
SKYMED 2 4.1 04:44:10 10° SSE 04:47:34 54° SE 04:47:34 54° SE
ALOS 3.3 04:44:11 10° NNE 04:48:42 46° E 04:53:10 10° S
Cosmos 1758 Rocket 4.1 04:50:26 34° NNE 04:52:04 56° ENE 04:56:23 10° SSE
Meteor 1-21 Rocket 4.5 04:47:38 10° N 04:53:31 74° ENE 04:59:26 10° SSE
Lacrosse 5 rocket 2.7 04:54:58 34° N 04:54:58 34° N 04:58:22 10° NE
Abrixas rocket 4.5 04:56:04 22° ESE 04:56:04 22° ESE 04:57:20 10° ESE
Cosmos 1538 Rocket 4.3 04:52:41 11° S 04:57:52 67° ESE 05:03:09 10° NNE
Okean O Rocket 3.5 04:55:07 10° NNE 04:59:07 31° E 05:03:04 10° SSE
NOSS 3-2 (C) 4.0 04:57:30 32° NW 05:01:27 81° NE 05:09:48 10° SE
Cosmos 2154 Rocket 3.8 04:56:40 10° NNW 05:02:50 71° W 05:09:00 10° S
STARLINK-43 4.1 05:05:40 46° NE 05:05:40 46° NE 05:08:32 10° ENE
NOSS 2-2 (C) 3.4 05:05:43 69° SE 05:05:43 69° SE 05:09:50 10° NE
STARLINK-60 4.4 05:06:53 37° NE 05:06:53 37° NE 05:09:21 10° E
Orbus 7S? 3.3 05:07:26 75° ENE 05:07:26 75° ENE 05:12:28 10° ESE
CZ-2C R/B 3.9 05:02:50 10° N 05:04:50 23° NNW 05:04:50 23° NNW
Cosmos 1953 2.4 05:06:47 10° S 05:10:49 78° E 05:14:54 10° NNE
BREEZE-M DEB (TANK) 2.8 05:10:05 54° SSW 05:10:50 68° SSE 05:19:50 10° ENE
ATLAS 3B R/B 3.1 05:08:15 24° NNW 05:12:21 58° NE 05:19:07 10° ESE
Cosmos 972 Rocket 4.3 05:09:10 13° NNW 05:15:03 88° WSW 05:20:46 10° SSE
CZ-4B DEB 4.5 05:09:55 10° NNE 05:15:30 69° ESE 05:21:00 10° S
NOSS 2-2 (E) 3.1 05:16:11 81° NW 05:16:12 81° NW 05:20:31 10° NE
Cosmos 1825 Rocket 3.4 05:15:12 25° N 05:17:39 87° ENE 05:22:00 10° S
PSLV R/B 3.6 05:17:38 10° N 05:21:08 66° NNW 05:21:08 66° NNW
USA 215 3.4 05:16:49 10° SSE 05:23:09 53° SW 05:25:48 34° W
NOSS 3-2 (A) 4.0 05:19:33 30° NW 05:23:31 63° SW 05:31:45 10° SSE
MOS 1-B 4.3 05:18:53 10° NNE 05:24:43 86° ESE 05:30:32 10° SSW
Cosmos 1295 Rocket 4.4 05:18:50 10° NNW 05:24:59 64° W 05:31:02 10° S
FALCON 9 DEB 3.7 05:27:33 47° N 05:27:44 47° N 05:31:09 10° E
Cosmos 2322 Rocket 4.3 05:23:02 10° SSE 05:27:44 28° ESE 05:32:28 10° NE
STARLINK-26 3.4 05:28:09 55° SSW 05:28:43 68° SSE 05:32:14 10° ENE
STARLINK-80 3.3 05:29:11 63° WNW 05:29:33 69° NNW 05:33:21 10° ENE
Cosmos 2366 rocket 4.3 05:24:19 10° N 05:30:41 69° ENE 05:37:01 10° SSE
Cosmos 2344 3.5 05:28:46 19° SW 05:34:32 71° NW 05:43:05 10° NE
Timation 1 Rocket 4.3 05:31:05 18° NNW 05:35:45 89° WSW 05:41:47 10° SSE
COSMO-SKYMED 1 3.2 05:32:41 10° SSW 05:36:13 35° WSW 05:36:13 35° WSW
CENTAUR R/B 3.1 05:30:47 20° NW 05:36:47 86° SW 05:45:30 10° SE
Cosmos 2263 Rocket 2.2 05:32:29 17° NNW 05:36:57 86° ENE 05:42:38 10° SSE
Cosmos 2360 4.1 05:31:32 10° SW 05:37:09 67° WNW 05:42:53 10° NNE
STARLINK-48 3.3 05:36:46 49° W 05:37:44 79° NNW 05:41:39 10° ENE
Cosmos 962 Rocket 4.5 05:31:38 10° NNW 05:37:49 62° W 05:44:01 10° S
Cosmos 1606 Rocket 3.5 05:34:12 10° S 05:38:39 87° W 05:43:07 10° N
Cosmos 1656 4.4 05:39:33 29° WNW 05:40:04 30° NW 05:44:53 10° NNE
STARLINK-33 4.3 05:38:04 20° SSW 05:40:15 43° SE 05:43:43 10° ENE
Cosmos 1726 Rocket 3.6 05:36:20 10° S 05:40:47 80° E 05:45:13 10° NNE
ADEOS Rocket 3.0 05:35:52 10° SSE 05:41:18 73° ENE 05:47:00 10° NNW
STARLINK-29 3.7 05:42:03 40° NNW 05:42:51 49° N 05:46:18 10° E
STARLINK-24 4.5 05:40:12 15° SW 05:43:15 45° SE 05:47:07 10° ENE
SJ-12 4.0 05:39:38 10° N 05:43:34 48° WNW 05:47:29 10° SW
STARLINK-52 3.7 05:42:59 39° NNW 05:43:47 48° N 05:47:12 10° E
STARLINK-66 4.2 05:41:42 19° SSW 05:43:58 46° SSE 05:47:28 10° ENE
STARLINK-54 4.4 05:43:06 15° SW 05:46:15 47° SE 05:50:08 10° ENE
METEOR-M 4.1 05:41:54 10° N 05:47:12 62° WNW 05:52:28 10° SSW
STARLINK-55 4.0 05:45:33 19° SW 05:47:54 50° SSE 05:51:25 10° ENE
SMAP 4.4 05:43:49 10° NNE 05:48:15 42° E 05:52:40 10° S
Cosmos 1328 3.7 05:44:46 10° NNW 05:48:47 79° W 05:52:45 10° S
STARLINK-25 4.5 05:45:55 13° SW 05:49:21 47° SE 05:53:13 10° ENE
DMSP B5D1-3 4.5 05:44:48 10° S 05:49:52 65° WSW 05:54:58 10° NNW
Cosmos 1844 Rocket 4.2 05:45:25 10° NNW 05:50:28 32° NE 05:55:30 10° ESE
STARLINK-71 4.3 05:47:54 14° SW 05:51:12 52° SSE 05:55:07 10° ENE
ATLAS 2AS CENTAUR R/B 3.3 05:44:27 10° SSW 05:52:24 75° SE 06:00:23 10° NE
STARLINK-79 4.4 05:49:05 12° SW 05:52:38 49° SSE 05:56:32 10° ENE
STARLINK-28 3.7 05:50:50 19° SW 05:53:11 57° SSE 05:56:41 10° ENE
Cosmos 2278 3.9 05:48:14 12° SW 05:53:18 48° NW 05:58:51 10° NNE
STARLINK-78 4.3 05:50:44 12° SW 05:54:20 51° SSE 05:58:15 10° ENE
STARLINK-57 4.2 05:52:30 12° SW 05:56:03 53° SSE 06:00:00 10° ENE
STARLINK-42 4.0 05:54:22 14° SW 05:57:30 55° SSE 06:01:14 10° ENE
STARLINK-49 4.2 05:53:52 11° SW 05:57:35 53° SSE 06:01:31 10° ENE
STARLINK-27 4.2 05:55:30 11° SW 05:59:16 54° SSE 06:03:13 10° ENE
USA 238 DEB 4.4 05:55:39 21° WNW 05:59:44 37° WSW 06:06:21 10° S
USA 238 4.4 05:55:44 21° WNW 05:59:50 37° WSW 06:06:29 10° S
STARLINK-64 4.0 05:56:44 13° SW 06:00:03 56° SSE 06:03:49 10° ENE
STARLINK-74 4.2 05:57:03 11° SW 06:00:53 55° SSE 06:04:50 10° ENE
Cosmos 2369 4.4 05:58:57 19° WSW 06:02:19 34° NW 06:07:33 10° NNE
STARLINK-39 4.1 05:58:40 10° SW 06:02:33 57° SSE 06:06:31 10° ENE
Cosmos 1624 Rocket 4.1 05:57:20 10° NNW 06:02:35 79° ENE 06:07:47 10° SSE
Cosmos 2181 Rocket 3.9 05:57:21 10° SSW 06:03:31 70° WNW 06:09:51 10° N
STARLINK 4.1 06:00:18 10° SW 06:04:14 58° SSE 06:08:12 10° ENE
SJ-7 4.3 06:00:31 10° N 06:04:39 72° WNW 06:08:48 10° SSW
STARLINK-69 3.9 06:02:12 11° SW 06:06:02 63° SSE 06:10:02 10° ENE
SL-16 R/B 2.8 06:00:30 10° S 06:06:03 61° ESE 06:11:39 10° NE
Cosmos 2341 Rocket 4.3 06:01:21 10° NNW 06:07:11 41° W 06:12:57 10° SSW
STARLINK-21 4.0 06:03:34 10° SW 06:07:32 61° SSE 06:11:31 10° ENE
SL-8 Rocket 4.0 06:01:35 10° NNW 06:07:38 55° W 06:13:36 10° SSW
Cosmos 2228 3.2 06:03:26 10° SSW 06:07:43 50° WNW 06:12:01 10° N
Helios 1A Rocket 2.8 06:04:33 10° N 06:08:40 71° WNW 06:12:47 10° SSW
STARLINK-45 3.8 06:05:30 11° SW 06:09:24 68° SSE 06:13:25 10° ENE
SL-4 R/B 3.2 06:09:15 18° WSW 06:10:25 21° SW 06:13:05 10° S
H-2A R/B 2.9 06:06:38 10° NNE 06:10:35 80° ESE 06:14:28 10° S
STARLINK-70 3.8 06:06:57 10° SW 06:10:56 67° SSE 06:14:57 10° ENE
Meteor 2-10 4.1 06:06:18 10° SSW 06:11:45 58° WNW 06:17:02 10° N
STARLINK-76 3.9 06:08:30 10° SW 06:12:29 66° SSE 06:16:30 10° ENE
CZ-4B R/B 3.2 06:07:59 10° N 06:13:33 65° WNW 06:18:57 10° SSW
STARLINK 3.8 06:10:08 10° SW 06:14:08 67° SSE 06:18:09 10° ENE
PAYLOAD B 4.4 06:10:07 10° N 06:15:31 49° WNW 06:20:53 10° SW
Lacrosse 5 3.9 06:11:07 10° S 06:15:32 31° SE 06:19:58 10° ENE
STARLINK-32 3.8 06:11:48 10° SW 06:15:48 69° SSE 06:19:48 10° ENE
Cosmos 2360 Rocket 4.1 06:11:28 10° S 06:16:30 34° ESE 06:21:34 10° NE
Cosmos 1726 2.7 06:13:11 10° SW 06:16:32 33° WNW 06:19:55 10° N
Meteor 1-16 Rocket 4.4 06:10:59 10° SSW 06:16:48 55° WNW 06:22:32 10° N
Cosmos 2056 Rocket 3.6 06:11:49 10° NNW 06:17:17 83° WSW 06:22:43 10° SSE
STARLINK-40 3.8 06:13:27 10° SW 06:17:28 70° SSE 06:21:29 10° ENE
FENGYUN 3A 4.1 06:12:45 10° N 06:17:41 37° WNW 06:22:36 10° SW
NOSS 2-2 (D) 4.0 06:15:29 19° W 06:17:43 34° NW 06:21:47 10° NNE
STARLINK-44 3.8 06:15:06 10° SW 06:19:06 72° SSE 06:23:08 10° ENE
STARLINK-37 3.7 06:16:50 10° WSW 06:20:51 76° SSE 06:24:53 10° ENE
STARLINK-36 3.7 06:18:24 10° WSW 06:22:25 75° SSE 06:26:27 10° ENE
Cosmos 1980 Rocket 2.6 06:17:29 10° WSW 06:22:49 40° NW 06:28:10 10° NNE
Cosmos 1300 3.6 06:19:38 10° S 06:23:21 53° E 06:27:06 10° NNE
Cosmos 923 Rocket 4.1 06:18:30 10° SW 06:23:40 56° WNW 06:28:55 10° NNE
STARLINK-68 3.6 06:20:13 10° WSW 06:24:15 81° SSE 06:28:17 10° ENE
Cosmos 1953 Rocket 4.4 06:20:49 10° NNW 06:24:41 30° W 06:28:30 10° SSW
STARLINK-61 3.4 06:21:03 12° WSW 06:24:45 80° NNW 06:28:44 10° ENE
STARLINK-63 3.6 06:21:46 10° WSW 06:25:48 80° SSE 06:29:50 10° ENE
ALOS 3.2 06:22:04 10° N 06:25:54 25° WNW 06:29:43 10° WSW
Cosmos 1908 3.4 06:22:16 10° SSW 06:26:03 47° WNW 06:29:52 10° N
STARLINK-35 3.6 06:23:19 10° WSW 06:27:21 79° SSE 06:31:23 10° ENE
Meteor 1-11 4.4 06:23:04 10° NNW 06:28:30 52° W 06:33:56 10° S
STARLINK-51 3.6 06:24:58 10° WSW 06:29:00 81° SSE 06:33:03 10° ENE
Abrixas rocket 3.5 06:27:47 14° W 06:29:49 26° SSW 06:32:26 10° SSE
CZ-3 R/B 4.2 06:23:37 10° WSW 06:30:27 15° SW 06:34:30 10° S
STARLINK-30 3.6 06:26:38 10° WSW 06:30:40 83° SSE 06:34:42 10° ENE
Cosmos 1697 Rocket 3.8 06:27:01 11° W 06:31:12 24° NW 06:35:44 10° NNE
CZ-2C R/B 4.1 06:26:50 10° SE 06:31:36 36° ENE 06:36:30 10° N
STARLINK-72 3.6 06:28:17 10° WSW 06:32:19 84° SSE 06:36:22 10° ENE
FALCON 9 DEB 1.2 06:31:41 17° WSW 06:32:46 75° SSE 06:34:23 10° ENE
COSMOS 2455 3.1 06:27:23 10° WSW 06:33:10 47° NW 06:39:00 10° NNE
Cosmos 1703 4.2 06:29:55 10° NNW 06:33:16 27° W 06:36:36 10° SSW
STARLINK-50 3.6 06:29:56 10° WSW 06:33:58 86° SSE 06:38:01 10° ENE
Okean-O 3.5 06:29:37 10° NNE 06:34:00 56° E 06:38:21 10° S
Lacrosse 5 rocket 2.7 06:30:37 12° NW 06:34:17 32° N 06:38:15 10° ENE
STARLINK-75 3.4 06:30:36 10° WSW 06:34:28 86° NNW 06:38:22 10° ENE
Okean O Rocket 2.3 06:31:27 10° N 06:35:27 33° WNW 06:39:26 10° SW
STARLINK-59 3.5 06:31:42 10° WSW 06:35:44 89° SSE 06:39:47 10° ENE
Cosmos 1812 Rocket 4.2 06:32:59 10° S 06:37:17 61° E 06:41:38 10° NNE
STARLINK-56 3.5 06:33:15 10° WSW 06:37:17 88° SSE 06:41:21 10° ENE
Cosmos 1340 Rocket 4.2 06:34:17 10° SSE 06:37:59 42° E 06:41:42 10° NNE
Genesis I 3.8 06:35:28 12° NW 06:38:45 37° WSW 06:42:18 10° S
Starlink (trailer) 3.5 06:34:54 10° WSW 06:38:55 90° WSW 06:42:59 10° ENE
Cosmos 2218 Rocket 4.5 06:33:49 10° NNW 06:39:41 39° W 06:45:29 10° SSW
Cosmos 1821 Rocket 4.0 06:33:46 10° N 06:40:02 89° E 06:46:09 10° S
CZ-4 R/B 3.2 06:36:12 10° NNE 06:40:10 37° E 06:44:06 10° SSE
Nadezhda 3 Rocket 4.2 06:34:23 10° S 06:40:32 80° E 06:46:45 10° NNE
STARLINK-38 3.5 06:36:33 10° WSW 06:40:35 88° NNW 06:44:38 10° ENE
STARLINK-65 3.5 06:38:11 10° WSW 06:42:14 87° NNW 06:46:17 10° ENE
STARLINK-60 3.2 06:39:46 12° WNW 06:42:49 66° SSW 06:46:09 10° SE
STARLINK-43 3.9 06:39:49 12° WNW 06:43:09 46° N 06:46:46 10° E
STARLINK-41 3.4 06:39:20 10° WSW 06:43:11 86° NNW 06:47:04 10° ENE
NOAA 12 4.3 06:38:00 10° NNE 06:43:20 82° ESE 06:48:39 10° SSW
STARLINK-53 3.5 06:39:56 10° WSW 06:43:58 84° NNW 06:48:01 10° ENE
EXPRESS MD2 2.0 06:41:28 11° W 06:44:06 74° N 06:46:14 10° E
CZ-2C R/B 3.7 06:39:53 10° S 06:44:28 71° WSW 06:49:01 10° NNW
IRS-1C Rocket 4.1 06:40:03 10° NNE 06:45:20 76° WNW 06:50:35 10° SSW
In-Cosmos 22 Rocket 4.4 06:42:06 10° N 06:47:32 75° ENE 06:52:50 10° SSE
BREEZE M DEB (TANK) 3.4 06:44:48 10° WSW 06:47:47 80° SSE 06:56:05 10° E
Cosmos 1953 4.2 06:46:07 10° W 06:47:48 12° WNW 06:49:30 10° NW
STARLINK 3.4 06:46:41 10° WSW 06:50:32 83° NNW 06:54:24 10° ENE
Cosmos 1437 2.5 06:49:22 10° NNW 06:52:24 66° W 06:55:24 10° S
CORIOLIS 4.1 06:47:12 10° NNE 06:52:33 73° WNW 06:57:53 10° SSW
Alouette 2 Rocket 3.5 06:48:10 10° SSW 06:52:53 88° ESE 06:56:34 10° NNE
Cosmos 1892 3.5 06:50:05 10° N 06:53:53 55° ENE 06:57:38 10° SSE
Iridium 96 3.5 06:51:47 10° S 06:54:24 83° W 06:56:52 10° N
STARLINK-58 3.5 06:53:09 10° WSW 06:57:11 75° NNW 07:01:13 10° ENE
Cosmos 2058 Rocket 3.9 06:53:54 10° SW 06:57:42 28° WNW 07:01:31 10° N
NOSS 7 (A) 4.5 06:55:29 10° SW 06:58:37 72° NW 07:01:34 10° NE
STARLINK-62 3.5 06:54:53 10° WSW 06:58:54 73° NNW 07:02:57 10° ENE
Cosmos 2278 Rocket 3.8 06:54:19 10° NNW 06:59:12 29° NE 07:04:04 10° ESE
Cosmos 1452 Rocket 3.6 06:54:42 10° NNW 07:00:01 87° ENE 07:05:16 10° SSE
ATLAS 3B R/B 3.3 06:56:41 10° NW 07:02:53 41° WSW 07:09:15 10° S
